Temp
19 18 18 17 18 18 21 22 24 23 22 23 22 22 21 20 20 18 18 19 18 18 18 17 18 18 18 18 18 18 18 18 18 17 18 18 18 18 18 18 18 18 18 18 18 17 17 17 18
19 18 18 18 19 21 21 23 23 24 24 23 22 22 20 18 17 17 17 18 18 18 18 18 18 18 18 18 18 17 18 18 18 18 18 18 18 18 18 18 18 18 18 17 17 18 17 17 18
17 17 17 17 18 21 21 23 22 24 23 23 21 21 19 17 16 17 19 18 18 18 18 18 18 18 18 18 18 18 18 17 17 17 17 18 18 18 18 18 18 18 18 18 17 17 17 17 17
17 17 17 18 19 22 23 23 23 24 24 23 21 19 18 18 17 19 19 19 19 19 19 18 18 18 18 17 18 18 18 18 17 17 17 18 18 18 18 18 19 18 18 18 18 17 17 17 18
17 17 18 19 21 22 23 24 24 23 23 23 21 19 18 18 19 19 19 19 20 19 18 18 18 17 17 17 18 17 17 18 17 18 17 18 18 18 18 18 18 18 18 17 17 17 18 17 18
17 18 19 20 21 24 24 24 23 22 22 21 20 19 18 19 20 19 19 20 19 19 18 18 17 17 18 17 17 18 17 18 18 18 17 18 17 18 18 18 18 18 18 17 17 17 17 18 18
18 19 18 22 22 23 23 23 22 21 22 21 21 19 17 18 20 20 19 19 19 19 19 17 17 17 17 17 17 17 17 17 17 17 18 17 18 18 18 18 18 18 18 17 17 18 18 18 18
18 17 18 19 22 21 23 22 22 22 21 21 21 18 16 18 19 19 19 18 18 18 18 18 18 18 17 17 17 17 17 17 17 17 18 18 18 18 19 19 19 19 18 18 17 17 18 18 18
20 18 18 19 20 18 23 22 23 22 21 22 22 20 19 18 19 18 18 18 18 17 18 18 18 18 18 18 17 18 18 17 17 17 17 18 18 18 19 19 19 19 19 18 18 18 18 18 18
19 18 19 20 20 20 20 23 22 22 22 20 20 19 19 19 19 19 18 18 18 18 18 18 19 18 18 18 18 18 17 17 18 18 18 18 18 19 19 19 19 19 18 18 18 18 18 17 18
20 20 21 22 21 21 20 21 22 22 21 21 20 18 18 19 19 19 19 20 19 18 18 18 18 18 18 18 18 17 17 17 17 18 18 18 18 18 19 18 18 19 18 18 18 18 18 18 18
21 21 22 22 20 20 21 21 21 21 20 21 20 20 19 19 19 19 20 19 19 18 18 18 19 19 18 18 17 17 17 18 18 18 18 18 18 18 18 18 18 18 19 19 19 19 19 20 20
22 23 23 22 20 21 21 22 21 19 20 21 20 19 19 19 20 20 19 19 19 19 19 19 18 18 18 18 18 18 18 18 18 18 18 18 18 18 18 19 19 19 19 19 19 20 20 20 20
24 22 22 22 22 21 19 18 18 20 22 20 20 19 20 20 20 20 19 19 19 19 19 19 18 18 18 18 18 18 18 18 18 18 18 18 18 18 18 18 19 19 19 19 19 19 19 20 19
21 20 22 21 21 20 22 21 20 21 22 21 20 20 20 20 20 21 21 20 19 19 19 19 18 18 18 18 18 18 18 18 18 18 18 18 18 18 19 19 18 19 19 19 19 20 20 20 19
20 19 21 21 20 19 21 19 20 22 22 21 21 20 20 21 21 21 21 20 20 20 19 19 18 18 18 18 18 18 18 18 18 18 18 18 18 19 19 18 19 19 19 19 19 20 20 20 20
19 20 20 20 21 21 20 18 19 21 21 22 22 21 20 20 20 21 21 20 20 20 20 19 19 19 19 18 18 18 18 18 18 18 18 18 18 18 19 19 19 19 19 20 20 20 20 20 20
20 21 20 20 21 21 18 19 18 20 20 20 21 22 21 20 22 22 21 20 20 20 20 20 19 19 19 18 18 18 18 18 18 18 18 18 18 18 19 19 19 19 19 20 20 20 20 21 20
22 22 22 20 22 20 19 17 18 20 21 20 20 21 20 20 21 21 21 20 20 20 20 20 19 19 19 19 19 19 19 18 18 18 18 18 18 18 19 19 19 19 19 20 20 20 21 21 21
22 22 18 19 19 19 18 18 17 18 18 20 18 20 21 20 21 21 21 20 20 20 20 20 19 20 19 19 19 19 19 18 18 18 18 18 19 19 19 19 19 19 19 20 20 20 21 21 21
21 21 21 19 20 20 19 18 18 18 18 18 19 18 20 20 20 21 21 21 20 20 20 20 20 20 19 19 19 19 18 18 18 18 18 18 18 19 19 19 19 19 19 19 20 20 21 21 21
21 22 23 20 19 19 19 19 17 17 17 18 18 18 20 20 20 21 21 20 21 21 21 21 20 20 19 19 19 19 19 19 19 19 19 18 18 19 19 19 19 19 19 20 20 20 20 21 21
21 24 23 20 18 17 18 18 17 17 17 18 18 19 19 19 19 21 22 22 22 22 21 21 20 19 19 19 19 19 19 19 19 19 18 18 18 18 18 19 19 19 19 19 20 20 20 20 21
22 20 17 16 16 18 18 20 17 18 18 19 19 19 18 18 19 19 20 21 22 22 21 21 20 19 19 19 19 19 19 19 19 19 19 18 18 18 18 19 19 19 19 19 20 20 20 20 20
21 17 15 18 17 17 17 18 19 18 18 19 19 18 17 19 19 19 19 20 21 22 21 21 20 19 19 19 19 19 19 19 19 19 19 19 18 18 19 19 19 19 19 19 20 20 20 20 20
18 18 17 19 17 18 17 19 17 16 16 19 19 18 17 17 18 19 19 19 20 22 22 21 20 20 19 19 19 19 19 19 19 19 19 19 19 19 18 19 19 19 19 19 19 20 20 20 20
22 21 20 18 19 19 17 18 18 16 16 15 16 16 16 17 17 18 18 19 19 20 21 22 21 20 19 19 19 19 19 19 19 19 19 19 19 19 19 19 19 19 20 19 19 19 20 20 20
21 20 20 17 19 22 18 18 18 16 16 16 15 15 16 17 17 18 19 20 19 20 20 20 20 20 20 19 19 19 19 19 20 20 19 19 19 19 19 19 19 20 20 19 19 19 19 20 20
21 20 17 17 17 19 18 17 16 16 15 15 15 15 16 16 16 16 16 18 17 19 20 20 20 19 19 19 19 19 19 19 19 19 20 20 19 19 19 19 19 19 19 19 19 19 19 19 19
21 20 18 18 20 15 15 17 15 16 15 14 14 15 15 15 15 15 16 16 17 18 19 20 19 19 19 19 19 19 19 19 19 19 19 19 20 20 20 20 20 19 19 19 19 19 19 19 19
Height
1508 1509 1509 1510 1517 1513 1512 1509 1499 1505 1513 1514 1519 1520 1522 1523 1528 1541 1536 1542 1546 1549 1551 1553 1555 1555 1556 1558 1558 1560 1560 1561 1562 1563 1563 1563 1562 1562 1563 1563 1564 1564 1565 1565 1566 1565 1567 1568 1568
1510 1510 1511 1510 1516 1518 1515 1500 1505 1504 1507 1513 1519 1520 1524 1531 1529 1531 1538 1544 1548 1550 1552 1555 1556 1557 1557 1559 1560 1561 1563 1564 1565 1566 1567 1566 1566 1566 1566 1567 1567 1567 1568 1569 1570 1571 1571 1571 1572
1511 1510 1512 1513 1516 1517 1517 1503 1503 1505 1508 1514 1520 1523 1527 1532 1532 1533 1539 1544 1549 1551 1554 1556 1558 1559 1560 1561 1562 1563 1564 1565 1567 1569 1568 1569 1569 1569 1570 1570 1570 1571 1572 1573 1574 1575 1574 1574 1575
1511 1512 1514 1516 1518 1507 1503 1504 1505 1508 1515 1517 1519 1527 1532 1533 1536 1537 1540 1546 1550 1553 1556 1558 1560 1561 1562 1563 1564 1564 1566 1567 1568 1570 1571 1572 1571 1572 1573 1573 1574 1574 1575 1576 1577 1578 1578 1577 1578
1507 1513 1519 1518 1513 1507 1504 1504 1506 1509 1514 1518 1521 1531 1533 1540 1540 1543 1545 1549 1552 1555 1558 1559 1561 1562 1563 1564 1565 1566 1567 1568 1570 1571 1573 1574 1575 1575 1576 1577 1577 1578 1578 1579 1580 1581 1581 1582 1582
1513 1514 1516 1519 1512 1504 1506 1507 1510 1511 1515 1521 1526 1529 1539 1543 1544 1547 1550 1552 1555 1557 1559 1561 1562 1564 1565 1566 1567 1567 1568 1570 1572 1573 1575 1576 1578 1578 1579 1579 1580 1580 1580 1581 1583 1583 1584 1585 1585
1512 1512 1522 1509 1511 1507 1509 1512 1512 1515 1519 1524 1526 1531 1541 1545 1548 1549 1553 1555 1557 1559 1560 1562 1564 1565 1566 1568 1569 1570 1571 1572 1574 1575 1576 1578 1579 1581 1581 1582 1582 1582 1583 1584 1585 1586 1587 1588 1588
1513 1515 1520 1519 1511 1518 1512 1516 1518 1514 1521 1526 1530 1534 1540 1544 1548 1552 1555 1557 1559 1561 1562 1564 1565 1567 1568 1570 1571 1572 1574 1575 1575 1576 1578 1580 1582 1583 1584 1584 1585 1586 1587 1588 1589 1590 1590 1590 1590
1515 1522 1524 1521 1518 1519 1517 1518 1520 1520 1520 1528 1530 1532 1539 1544 1550 1554 1556 1559 1561 1562 1564 1566 1568 1569 1570 1571 1573 1574 1575 1576 1577 1579 1580 1581 1583 1584 1586 1587 1588 1590 1591 1592 1593 1594 1594 1593 1593
1514 1521 1519 1512 1515 1518 1518 1521 1521 1521 1527 1531 1533 1539 1543 1547 1550 1553 1555 1558 1560 1562 1565 1567 1569 1571 1572 1573 1575 1576 1577 1578 1579 1580 1582 1584 1586 1588 1589 1590 1592 1593 1594 1595 1596 1597 1597 1596 1596
1510 1515 1510 1510 1513 1515 1518 1522 1525 1521 1528 1527 1531 1538 1544 1548 1551 1554 1558 1559 1560 1563 1565 1568 1571 1572 1574 1576 1577 1579 1580 1580 1582 1583 1585 1587 1589 1591 1592 1595 1596 1596 1597 1598 1598 1599 1599 1599 1598
1510 1504 1506 1508 1509 1515 1516 1521 1525 1526 1529 1533 1533 1538 1544 1549 1552 1554 1557 1560 1562 1564 1567 1570 1572 1573 1576 1578 1579 1581 1582 1583 1584 1586 1588 1590 1592 1594 1595 1597 1598 1599 1600 1601 1601 1600 1600 1599 1599
1506 1504 1506 1507 1507 1510 1514 1520 1523 1529 1531 1536 1538 1543 1546 1550 1553 1557 1560 1563 1564 1566 1568 1571 1574 1576 1578 1580 1581 1583 1584 1586 1587 1588 1590 1593 1595 1597 1598 1599 1600 1601 1602 1602 1602 1602 1602 1602 1601
1500 1504 1507 1509 1510 1512 1517 1526 1525 1529 1530 1535 1538 1543 1547 1550 1552 1557 1560 1562 1565 1567 1570 1573 1576 1578 1580 1582 1583 1585 1586 1588 1590 1592 1594 1596 1598 1599 1600 1601 1602 1603 1603 1604 1604 1604 1604 1603 1602
1502 1510 1508 1512 1512 1516 1520 1526 1526 1526 1531 1534 1539 1543 1547 1550 1553 1554 1558 1562 1564 1567 1571 1573 1576 1579 1581 1584 1585 1587 1588 1590 1592 1594 1595 1598 1600 1602 1602 1603 1604 1605 1605 1606 1606 1606 1606 1605 1604
1508 1512 1519 1511 1513 1518 1518 1533 1527 1526 1530 1536 1539 1544 1546 1549 1552 1557 1560 1562 1565 1567 1571 1574 1576 1579 1582 1585 1587 1588 1589 1591 1594 1595 1597 1599 1601 1602 1604 1605 1606 1607 1608 1608 1608 1608 1608 1608 1607
1514 1523 1521 1516 1512 1513 1520 1532 1528 1529 1531 1535 1539 1543 1545 1551 1554 1557 1560 1563 1565 1569 1570 1574 1576 1579 1582 1584 1587 1588 1590 1592 1594 1596 1597 1599 1602 1603 1605 1606 1607 1608 1609 1609 1609 1609 1609 1609 1608
1522 1520 1518 1517 1513 1512 1521 1526 1527 1528 1532 1535 1539 1539 1544 1548 1552 1557 1560 1564 1566 1570 1572 1574 1577 1580 1582 1584 1586 1588 1589 1592 1594 1597 1598 1600 1602 1604 1606 1607 1608 1610 1610 1610 1611 1610 1610 1610 1609
1510 1513 1513 1512 1509 1517 1521 1529 1526 1528 1533 1538 1540 1541 1544 1546 1551 1557 1560 1564 1566 1569 1572 1574 1577 1580 1582 1583 1585 1587 1589 1592 1594 1596 1599 1600 1603 1605 1607 1608 1609 1610 1611 1611 1612 1611 1611 1611 1610
1510 1512 1521 1517 1515 1517 1527 1529 1530 1531 1533 1534 1536 1541 1545 1548 1552 1555 1560 1563 1565 1567 1570 1574 1577 1578 1581 1584 1586 1589 1590 1592 1594 1595 1597 1599 1602 1604 1606 1608 1609 1611 1611 1612 1613 1613 1613 1612 1612
1509 1513 1514 1519 1518 1518 1525 1536 1531 1529 1532 1538 1540 1544 1545 1547 1549 1554 1558 1561 1564 1566 1569 1572 1576 1578 1581 1583 1586 1588 1590 1592 1593 1594 1596 1598 1600 1603 1605 1607 1609 1610 1612 1613 1613 1613 1614 1613 1613
1515 1498 1500 1512 1521 1534 1523 1543 1535 1532 1533 1535 1538 1542 1545 1547 1550 1551 1556 1559 1561 1564 1568 1571 1574 1577 1580 1582 1585 1587 1589 1592 1593 1594 1596 1598 1599 1601 1604 1606 1608 1610 1611 1613 1614 1615 1614 1615 1614
1503 1493 1497 1508 1522 1528 1531 1538 1534 1530 1535 1531 1532 1539 1544 1547 1550 1549 1552 1554 1559 1563 1566 1570 1573 1577 1579 1582 1584 1586 1589 1592 1593 1595 1596 1597 1599 1601 1603 1606 1608 1610 1611 1613 1615 1616 1616 1616 1616
1493 1501 1508 1518 1527 1539 1525 1527 1531 1525 1524 1528 1532 1538 1541 1547 1550 1552 1554 1555 1557 1562 1566 1569 1572 1575 1578 1581 1584 1586 1588 1590 1593 1594 1596 1597 1599 1601 1603 1605 1608 1609 1610 1613 1614 1616 1616 1617 1617
1492 1511 1541 1541 1547 1546 1522 1530 1521 1520 1517 1521 1525 1530 1539 1545 1547 1551 1553 1556 1558 1559 1563 1568 1570 1574 1577 1580 1583 1585 1588 1590 1592 1594 1596 1597 1599 1600 1602 1604 1606 1608 1609 1612 1614 1615 1616 1617 1618
1496 1499 1527 1539 1548 1538 1527 1532 1526 1520 1517 1518 1524 1534 1537 1544 1546 1548 1551 1554 1556 1560 1560 1565 1569 1572 1576 1579 1582 1585 1587 1589 1591 1593 1595 1597 1599 1601 1602 1603 1605 1606 1609 1611 1613 1615 1616 1617 1618
1487 1498 1488 1515 1515 1526 1529 1525 1523 1523 1523 1522 1526 1531 1536 1539 1545 1547 1550 1551 1556 1559 1560 1562 1566 1571 1575 1579 1582 1584 1586 1587 1590 1591 1593 1596 1598 1601 1602 1604 1605 1605 1607 1609 1610 1613 1614 1616 1617
1475 1477 1503 1512 1530 1524 1530 1526 1524 1525 1524 1524 1527 1530 1533 1537 1540 1542 1544 1545 1552 1557 1559 1562 1565 1569 1573 1577 1580 1582 1585 1587 1588 1589 1592 1595 1597 1599 1601 1603 1604 1605 1606 1607 1609 1610 1612 1614 1615
1482 1486 1494 1500 1514 1524 1535 1532 1522 1522 1524 1525 1527 1530 1533 1536 1538 1540 1536 1540 1549 1554 1556 1559 1564 1568 1571 1575 1579 1581 1583 1585 1587 1589 1591 1593 1596 1598 1599 1600 1601 1603 1604 1606 1606 1608 1610 1611 1613
1478 1483 1487 1506 1511 1523 1531 1528 1520 1519 1523 1523 1525 1527 1532 1536 1535 1537 1538 1538 1546 1548 1552 1558 1562 1566 1570 1574 1577 1580 1582 1585 1586 1587 1590 1592 1594 1596 1597 1598 1598 1600 1601 1603 1605 1605 1607 1608 1610
Wind_Speed
6 5 2 3 1 1 1 3 3 11 9 10 24 5 4 8 2 3 22 21 22 19 19 17 17 16 16 16 16 16 17 16 16 15 14 15 17 17 17 16 16 16 17 19 20 21 21 21 21
7 2 2 3 2 2 2 4 6 8 18 26 10 15 8 4 6 23 26 23 20 21 20 19 17 15 15 15 15 15 15 15 15 15 15 15 17 18 17 17 17 17 19 20 21 22 22 21 21
6 0 4 2 1 1 3 4 10 11 28 29 7 13 5 3 17 33 27 27 23 22 19 17 15 14 13 14 13 13 13 13 13 15 15 15 17 17 18 18 17 19 21 21 20 19 16 15 15
4 3 3 2 2 3 7 11 21 19 20 7 21 11 10 14 20 24 30 26 23 21 18 16 14 13 13 12 13 13 13 13 14 15 14 14 14 16 16 17 17 19 18 18 18 17 17 18 15
7 3 2 2 3 1 2 18 19 8 12 15 9 9 12 14 21 29 28 26 23 21 18 17 14 14 12 13 13 15 14 13 16 16 15 15 14 15 15 15 16 17 18 17 16 14 14 15 16
2 3 2 4 4 5 6 17 11 15 21 21 21 17 8 22 26 27 25 23 20 19 18 16 14 13 13 13 13 14 12 13 14 16 15 15 13 14 15 17 17 17 18 19 16 14 12 13 15
2 3 5 3 9 10 7 14 14 18 18 13 22 7 17 26 25 26 24 22 20 19 17 16 15 13 13 14 14 15 14 15 14 14 17 16 15 15 15 16 17 18 19 19 16 15 14 14 14
5 2 6 6 8 5 8 6 13 22 14 21 27 6 14 30 30 27 24 21 20 17 15 15 15 14 15 14 15 15 14 15 14 16 16 15 16 16 17 17 18 18 19 19 16 13 10 11 11
5 4 1 3 8 3 12 11 11 13 31 14 2 25 34 32 29 25 24 21 19 17 15 15 14 15 15 16 16 15 15 14 15 16 18 18 19 19 18 19 19 20 20 19 18 14 10 9 6
4 3 9 8 6 11 12 3 12 15 20 21 29 25 34 32 29 26 26 23 21 19 17 16 15 15 16 16 17 18 17 16 16 18 19 21 20 20 22 21 21 20 20 19 17 15 11 6 2
5 4 6 8 11 23 16 10 13 24 12 33 35 36 36 33 29 25 23 21 21 19 20 18 18 17 17 18 18 16 18 18 17 20 22 21 21 23 22 20 17 17 16 13 10 8 6 5 2
2 10 3 1 17 13 17 24 11 18 12 27 37 37 37 35 31 27 26 24 23 20 20 20 19 20 21 19 19 18 17 18 19 20 20 21 22 21 18 17 13 13 15 12 9 8 7 7 7
5 4 5 2 18 19 15 16 12 20 26 30 36 37 38 36 29 26 24 22 21 20 22 21 21 20 18 18 19 18 19 19 20 19 21 22 21 15 15 13 13 15 12 10 12 12 8 5 5
3 7 9 7 11 10 10 12 16 16 31 37 37 37 39 35 30 26 25 25 21 19 19 21 19 16 15 19 18 19 19 17 17 19 20 20 14 11 13 12 11 11 9 6 7 7 5 5 8
14 5 7 5 4 5 17 5 13 24 34 37 35 37 34 34 31 27 24 24 21 19 17 17 15 15 15 16 16 19 18 18 15 16 15 14 13 11 11 9 8 9 10 10 6 6 5 1 3
4 5 3 4 7 10 4 4 8 24 26 33 33 31 34 35 33 27 26 23 20 18 15 16 14 17 14 16 16 17 18 17 14 14 13 12 10 11 9 8 7 10 9 6 4 4 1 2 1
6 1 2 3 7 9 3 2 5 18 24 20 27 29 34 30 29 28 27 24 19 17 16 17 15 17 15 16 17 16 16 15 11 13 15 11 12 10 8 7 6 7 6 5 6 5 2 1 3
3 2 4 4 5 4 7 2 4 19 28 28 10 29 33 34 31 30 29 27 22 17 16 19 15 15 15 15 17 16 16 15 14 13 15 12 13 10 8 9 8 6 6 5 4 3 1 2 3
1 2 3 4 4 4 6 4 9 13 22 19 16 18 29 36 37 34 31 27 22 18 15 18 19 15 14 13 19 15 16 15 14 15 15 14 15 12 12 9 8 7 5 6 5 2 6 1 1
4 2 3 4 3 4 3 4 1 2 9 28 28 9 23 26 33 36 34 30 24 19 17 17 13 17 17 12 13 12 14 14 14 13 13 15 16 16 15 12 10 9 6 5 3 2 3 2 2
3 4 5 5 8 9 11 1 4 2 10 23 28 14 7 27 38 37 35 32 26 22 18 15 14 16 17 13 15 14 14 12 13 16 12 12 14 16 14 13 11 10 8 8 6 3 3 1 1
3 8 9 12 4 5 1 1 5 4 5 21 33 26 8 24 37 39 36 33 27 22 19 15 17 15 18 16 15 13 12 12 11 12 11 11 14 15 17 14 13 10 9 11 9 3 3 2 3
8 5 7 6 4 6 0 4 4 10 9 15 25 33 16 7 31 43 40 35 27 22 20 17 20 18 19 18 13 14 11 11 11 12 12 13 15 13 12 16 13 9 8 12 10 4 3 4 4
8 9 10 6 3 1 8 6 4 13 14 17 25 26 22 4 23 30 35 37 31 26 25 20 23 22 21 23 17 12 13 13 15 14 13 14 15 12 12 17 12 9 8 13 10 8 3 1 4
5 5 3 3 2 5 5 4 2 9 11 20 27 38 32 12 10 20 29 35 37 30 27 24 24 25 23 25 20 16 14 13 12 13 13 15 15 13 14 15 13 11 10 12 11 9 7 5 3
9 9 6 6 5 3 1 4 3 5 12 15 22 28 28 19 7 13 16 31 37 33 28 27 24 26 25 25 20 16 13 16 13 11 14 15 13 11 12 13 13 12 14 12 14 12 11 10 7
5 4 6 7 1 3 3 3 5 9 10 17 19 18 19 23 12 15 17 23 35 38 34 28 25 24 24 26 21 16 12 12 12 15 13 13 14 13 13 11 11 12 14 16 14 14 13 13 12
8 6 2 3 5 3 1 3 5 9 11 12 12 16 13 14 12 16 25 29 27 38 36 33 26 23 25 27 22 18 15 13 10 16 14 15 13 13 13 11 10 10 12 14 15 13 14 13 14
4 2 6 6 2 5 3 3 3 5 10 10 13 15 13 14 12 16 23 27 35 35 35 33 24 23 25 27 22 19 17 16 13 16 16 14 12 11 13 13 14 16 13 13 13 12 12 14 13
1 1 3 5 3 3 4 1 9 11 10 16 16 17 13 12 10 12 11 33 29 31 37 29 23 22 26 25 23 21 19 18 18 18 17 14 12 13 8 8 9 13 14 14 11 11 11 12 11
Wind_Direction
130 142 167 6 13 20 63 159 139 112 152 147 153 141 145 105 153 182 144 150 158 150 145 145 141 140 137 136 133 130 132 131 126 114 116 114 113 115 115 116 115 116 119 117 116 115 120 117 114
154 162 26 17 50 76 316 128 136 143 149 147 131 109 57 83 116 137 145 151 155 147 145 141 144 146 143 141 144 140 135 134 131 129 119 115 115 117 113 115 117 122 128 126 123 116 116 114 110
152 69 16 39 53 353 122 100 111 124 142 145 105 89 66 78 135 140 148 151 153 149 145 143 143 142 144 145 150 151 147 140 136 132 128 124 121 123 117 114 119 127 128 126 119 113 117 127 121
163 45 14 51 284 12 128 125 120 114 118 140 113 82 74 147 135 149 147 149 151 146 144 143 141 141 136 138 135 141 142 143 136 138 134 128 126 126 123 120 121 133 136 129 120 111 100 102 122
152 160 190 216 209 89 116 139 139 131 120 133 116 96 100 147 142 143 145 149 151 146 146 146 143 142 142 143 138 138 137 139 142 142 135 134 134 130 126 126 124 130 139 135 122 109 106 106 110
246 177 218 148 182 143 130 138 118 96 108 105 107 112 106 144 144 147 149 150 151 147 147 144 140 137 139 143 138 137 134 139 142 143 139 142 142 134 121 122 127 128 140 140 128 115 105 104 108
3 28 345 210 121 116 133 129 129 122 116 116 130 101 134 152 147 148 152 153 150 148 145 141 138 140 139 143 136 133 134 136 135 142 143 143 142 134 125 125 127 134 144 143 131 120 109 106 99
84 74 1 348 130 105 122 103 143 120 106 127 119 137 152 157 153 154 155 155 153 148 142 141 141 138 134 132 135 135 132 135 136 139 143 142 136 132 131 128 128 133 142 146 141 127 125 114 101
169 110 118 274 127 62 99 121 137 118 128 131 137 148 149 155 154 154 158 160 158 153 146 142 136 139 136 135 133 132 127 131 133 141 143 142 135 133 128 123 121 122 129 139 148 150 147 122 98
166 146 177 220 133 151 169 139 134 129 135 106 119 140 154 157 156 158 164 165 165 155 151 144 143 141 137 136 131 128 125 124 126 139 140 137 134 131 127 122 122 125 129 133 138 145 157 153 49
183 198 180 200 169 165 167 153 146 143 136 144 147 152 162 162 164 157 157 154 157 148 149 146 146 144 139 138 136 139 126 119 125 129 135 138 136 134 133 127 123 128 129 130 135 141 164 185 203
154 241 180 263 193 169 169 154 153 137 157 154 160 165 164 169 171 164 159 152 152 152 151 149 148 144 143 137 138 132 135 127 125 132 136 137 137 131 132 128 124 126 124 118 108 103 115 99 74
235 193 154 43 145 164 150 161 132 157 166 159 162 167 171 174 173 169 162 156 153 154 154 150 145 145 149 153 146 140 134 124 127 134 139 140 137 132 132 128 124 138 127 103 113 107 112 89 72
216 153 119 126 122 122 104 128 160 177 171 156 161 169 177 179 178 172 173 169 165 162 160 158 153 160 152 150 146 149 141 139 134 138 135 138 139 146 149 131 123 134 136 125 122 126 112 80 59
94 75 92 100 111 107 128 118 164 157 156 159 167 171 177 185 183 184 176 175 173 167 160 160 166 167 175 160 155 159 148 145 140 144 148 152 150 149 143 141 120 134 134 137 138 143 145 151 63
77 77 149 173 161 151 89 154 193 167 168 166 172 173 184 186 189 189 185 179 176 167 166 164 177 186 173 169 171 164 160 158 165 173 158 161 159 159 150 139 119 141 138 128 125 173 179 156 132
2 174 221 286 202 154 90 119 213 182 170 185 168 178 184 180 193 192 188 183 174 168 164 171 162 156 167 173 172 170 173 171 173 168 169 184 181 166 165 155 150 149 141 125 123 121 106 244 81
147 150 225 223 195 150 116 177 193 164 175 185 152 173 182 184 188 196 192 186 173 167 166 169 160 162 160 173 184 192 180 186 190 172 184 181 188 189 178 170 163 165 165 154 132 105 115 100 344
229 232 290 51 146 119 141 142 182 183 176 191 189 142 174 186 191 198 196 190 178 168 162 177 171 174 172 166 170 172 182 188 192 193 200 196 203 202 192 190 198 201 191 177 176 91 128 105 54
198 312 72 51 175 121 117 125 148 172 170 181 210 169 181 178 186 196 196 189 187 173 163 172 175 178 175 171 169 168 184 191 189 196 201 204 201 203 202 209 206 200 191 199 184 147 142 68 67
215 202 175 142 116 64 121 59 172 236 162 178 199 206 178 183 183 189 191 188 187 184 178 186 182 178 179 180 179 170 174 181 191 191 188 187 196 201 208 209 206 200 202 200 200 156 163 95 12
263 201 202 152 148 161 255 136 247 186 181 179 197 208 187 187 193 188 189 191 192 195 190 196 187 189 190 184 186 184 183 191 191 191 178 193 192 199 208 206 194 208 207 197 194 174 146 21 36
232 234 225 128 100 110 352 92 277 158 198 193 187 202 216 180 197 190 193 193 193 198 200 201 191 195 198 197 194 194 215 212 190 175 188 187 173 189 202 192 198 203 200 182 190 189 132 44 46
117 70 49 53 66 14 184 174 210 189 190 189 190 206 213 185 193 202 199 195 195 200 204 202 197 199 206 204 201 199 207 203 196 188 180 179 182 189 188 195 202 202 199 190 198 203 188 140 82
112 85 39 50 15 224 163 135 325 200 176 191 183 200 204 195 180 192 202 202 201 199 207 208 204 205 208 207 209 205 201 213 205 206 195 189 191 194 197 197 204 211 206 202 211 218 219 214 205
183 161 151 168 190 202 184 218 331 63 105 154 187 194 195 217 252 200 205 210 207 206 209 207 207 209 212 208 210 209 214 221 222 205 204 203 202 204 201 203 210 211 214 219 228 233 235 227 226
192 160 194 109 112 111 169 136 118 103 95 102 112 146 186 221 240 227 236 212 210 217 213 210 208 209 215 211 213 214 217 208 224 205 205 208 207 210 210 210 205 211 218 224 231 235 236 234 232
157 169 99 29 151 167 239 205 161 154 133 131 116 136 150 183 232 254 237 208 226 224 217 214 208 210 213 214 217 215 213 212 216 209 217 208 207 215 216 224 232 225 223 219 225 230 235 238 238
349 111 53 111 113 145 155 238 337 154 136 130 134 139 157 174 195 196 212 217 225 226 218 217 206 211 212 214 220 225 218 213 208 208 213 216 224 224 232 244 250 245 246 227 222 225 237 243 243
282 58 124 129 174 74 115 313 332 133 140 127 129 132 154 193 192 219 195 189 199 212 216 211 204 210 212 212 224 231 236 230 225 217 220 228 232 233 240 246 236 236 240 227 228 222 231 243 244